Regional Weather Roundup
Issued by NWS Goodland, KS

Home | Current Version | Previous Version | Graphics & Text | Print | Product List | Glossary On
Versions: 1 2 3 4 5 6 7 8 9 10 11 12 13 14 15 16 17 18 19 20 21 22 23 24 25 26 27 28 29 30 31 32 33 34 35 36 37 38 39 40 41 42 43 44 45 46 47 48 49 50
000
ASUS43 KGLD 180508
RWRGLD

GOODLAND FORECAST AREA HOURLY WEATHER ROUNDUP
NATIONAL WEATHER SERVICE GOODLAND KS
1100 PM MDT FRI APR 17 2015

...OFFICIAL OBSERVATIONS...

CITY           SKY/WX    TMP DP  RH WIND       PRES   REMARKS
GOODLAND KS    MOCLDY    47  47 100 E5        29.96F
HILL CITY KS   LGT RAIN  56  52  86 N5        29.94F
IMPERIAL NEB   LGT RAIN  51  44  77 SW15      29.98F
MCCOOK NEB     CLOUDY    53  47  79 NW12      29.96F
AKRON CO       CLOUDY    41  41 100 NW14      30.01F
BURLINGTON CO  FAIR      47  43  86 E13       29.95F
LIMON CO       PTCLDY    37  35  92 NW12      30.02S
$$

...UNOFFICIAL OBSERVATIONS...

CITY           SKY/WX    TMP DP  RH WIND       PRES   REMARKS
COLBY KS       LGT RAIN  52  52 100 SW8       30.01R
GOVE KS          N/A     55  32  41 MISG        N/A
LENORA KS        N/A     56  32  40 MISG        N/A
NORTON KS      RAIN      55  50  82 CALM      29.94F
SHARON SPRINGS   N/A     53  41  64 MISG        N/A
TRIBUNE KS     MOCLDY    50  45  81 SW9       29.97R
KIT CARSON CO    N/A     44  38  79 MISG        N/A
$$



USA.gov is the U.S. government's official web portal to all federal, state and local government web resources and services.